Location: Berkeley
(37.8716°N, 122.2727°W)
Time: 07:16:36
(UTC-07:00)

Tiangong - Visible Passes

Search period start: 10 May 2026 00:00
Search period end: 20 May 2026 00:00
Orbit: 379 x 384 km, 41.5° (Epoch: 10 May)

Date Brightness Start Highest point End Pass type
(mag) Time Alt. Az. Time Alt. Az. Time Alt. Az.
10 May 0.9 03:10:23 15° ENE 03:10:23 15° ENE 03:11:01 10° ENE visible
10 May -1.0 04:42:31 15° WNW 04:44:53 40° N 04:47:53 10° ENE visible
11 May -0.8 03:44:34 39° NNE 03:44:34 39° NNE 03:47:07 10° ENE visible
11 May -1.4 05:18:02 10° WNW 05:21:08 53° NNE 05:24:15 10° E visible
12 May -1.1 04:18:47 23° NW 04:20:20 43° N 04:23:22 10° E visible
13 May 0.2 03:20:57 24° NE 03:20:57 24° NE 03:22:30 10° ENE visible
13 May -2.0 04:53:18 10° WNW 04:56:28 75° NNE 04:59:38 10° ESE visible
14 May -1.5 03:55:25 51° N 03:55:38 52° NNE 03:58:44 10° E visible
14 May -1.6 05:29:23 10° W 05:32:23 40° SSW 05:35:22 10° SE visible
15 May -2.3 04:30:08 28° W 04:31:37 71° SSW 04:34:46 10° ESE visible
16 May 0.3 03:33:03 17° E 03:33:03 17° E 03:33:56 10° ESE visible
16 May -0.9 05:05:15 13° W 05:07:20 23° SSW 05:09:56 10° SSE visible
17 May 0.0 04:08:39 17° SE 04:08:39 17° SE 04:09:35 10° SE visible
18 May -0.9 21:11:49 10° SSW 21:14:18 22° SSE 21:15:23 18° ESE visible
19 May -2.3 21:46:45 10° WSW 21:49:51 67° SSE 21:50:51 38° E visible
